www.pogodaiklimat.ru

Погода и климат >> Архив погоды >> Австрия >> Капфенберг аэропорт


ПОГОДА в Капфенберг аэропорту

  • Прогноз погоды в Капфенберг аэропорту
  • Монитор погоды в Капфенберг аэропорту

АРХИВ ПОГОДЫ в Капфенберг аэропорту

Время (UTC), дата Ветер
(напр.,м/с)
 
Видим.   Явления Облачность Т
(С)
Тd
(С)
f
(%)
Тe
(С)
Тes
(С)
Комфортность P
(гПа)
Po
(гПа)
Тmin
(С)
Tmax
(С)
R
(мм)
R24
(мм)
S
(см)
19 10.06 Ю 2 н/о н/о +25.8 +14.5 50 +28 +28 жарко 1010.8 953.8
20 10.06 В 2 н/о н/о +23.2 +15.2 61 +27 +27 душно 1011.8 954.3
21 10.06 ЮЗ 2 н/о н/о +20.9 +15.3 70 +25 +25 комфорт 1012.6 954.6
22 10.06 В 1 н/о н/о +19.9 +15.4 75 +23 +23 комфорт 1012.8 954.6 0.0
23 10.06 штиль 0 н/о н/о +19.3 +15.3 78 +21 +21 комфорт 1012.9 954.6
00 11.06 З 1 н/о н/о +18.0 +15.2 84 +19 +19 1012.6 954.0 0.0
01 11.06 С 1 н/о н/о +17.3 +14.8 85 +18 +18 1012.2 953.5
02 11.06 штиль 0 н/о н/о +16.3 +14.4 89 +16 +16 1012.1 953.2
03 11.06 СВ 1 н/о н/о +16.1 +14.2 88 +17 +17 1012.6 953.6
04 11.06 СВ 1 н/о н/о +16.0 +14.3 90 +17 +17 1012.8 953.8
05 11.06 С 1 н/о н/о +18.0 +14.6 81 +19 +19 1011.9 953.4
06 11.06 штиль 0 н/о н/о +20.6 +15.7 73 +23 +23 комфорт 1011.2 953.2 +15.7 +27.0 0.0
07 11.06 С 1 н/о н/о +23.3 +15.9 63 +28 +28 душно 1011.1 953.6 0.0
08 11.06 СЗ 1 н/о н/о +25.7 +16.2 56 +29 +29 душно 1010.7 953.7
09 11.06 С 1 н/о н/о +26.3 +15.0 50 +29 +29 жарко 1010.4 953.5 0.0
10 11.06 ЮВ 1 н/о н/о +27.6 +13.2 41 +29 +29 жарко 1010.0 953.3
11 11.06 ЮЗ 3 н/о н/о +28.5 +12.0 36 +30 +30 жарко 1009.4 952.9
12 11.06 ЮЗ 3 н/о н/о +28.7 +13.2 39 +30 +30 жарко 1008.9 952.5 0.0
13 11.06 Ю 2 н/о н/о +28.9 +11.4 34 +30 +30 жарко 1008.8 952.4
14 11.06 Ю 3 н/о н/о +28.8 +11.4 34 +29 +29 жарко 1008.6 952.2
15 11.06 В 2 н/о н/о +27.4 +13.2 42 +29 +29 жарко 1009.4 952.7
16 11.06 ЮЗ 1 н/о н/о +24.5 +15.9 59 +28 +28 душно 1010.1 952.9
17 11.06 С 3 н/о н/о +23.9 +15.4 59 +27 +27 жарко 1011.4 954.0 0.0
18 11.06 ЮЗ 4 н/о в посл. час осадки н/о +22.9 +13.8 56 +26 +26 жарко 1012.0 954.4 +19.3 +29.6 0.1
19 11.06 ЮЗ 3 н/о н/о +21.6 +12.7 57 +24 +24 комфорт 1013.2 955.2 0.0
20 11.06 ЮЗ 4 н/о в посл. час осадки н/о +18.5 +14.3 77 +19 +19 1014.0 955.4 0.3
21 11.06 СВ 1 н/о {осадки} н/о +17.9 +14.2 79 +19 +19 1014.4 955.7 0.3
22 11.06 СВ 2 н/о н/о +17.0 +14.0 82 +17 +17 1013.4 954.6
23 11.06 З 3 н/о н/о +16.8 +13.6 81 +17 +17 1013.1 954.2
00 12.06 штиль 0 н/о {осадки} н/о +15.8 +13.3 85 +16 +16 1013.4 954.3 0.3
01 12.06 СЗ 1 н/о н/о +14.8 +12.7 87 +15 +15 1013.0 953.7
02 12.06 СЗ 1 н/о н/о +13.6 +12.0 90 +14 +14 1013.2 953.7
03 12.06 штиль 0 н/о н/о +13.2 +11.7 91 +13 +13 1013.4 953.8
04 12.06 З 1 н/о н/о +12.8 +11.4 91 +13 +13 1014.0 954.2
05 12.06 СВ 1 н/о н/о +14.8 +12.2 84 +15 +15 1013.5 954.2
06 12.06 штиль 0 н/о н/о +17.2 +12.9 76 +17 +17 1012.8 954.0 +12.4 +23.0 0.3
07 12.06 штиль 0 н/о н/о +19.1 +13.1 68 +20 +20 1012.4 954.0
08 12.06 штиль 0 н/о н/о +22.9 +14.1 58 +26 +26 жарко 1011.0 953.4
09 12.06 З 3 н/о н/о +25.6 +13.7 48 +28 +28 жарко 1009.9 952.9
10 12.06 З 4 н/о н/о +27.3 +13.7 43 +29 +29 жарко 1009.0 952.4
11 12.06 З 1 н/о н/о +28.1 +14.0 42 +30 +30 жарко 1008.6 952.1
12 12.06 ЮЗ 3 н/о н/о +28.9 +13.7 39 +31 +31 жарко 1008.4 952.1
13 12.06 ЮЗ 4 н/о н/о +29.2 +14.0 39 +31 +31 жарко 1008.1 951.9
14 12.06 ЮЗ 4 н/о н/о +28.3 +13.5 40 +30 +30 жарко 1008.3 951.9
15 12.06 З 2 н/о в посл. час осадки н/о +25.6 +18.6 65 +30 +30 душно 1008.8 952.0 0.6
16 12.06 З 2 н/о н/о +26.4 +17.8 59 +31 +31 душно 1008.1 951.4 0.0
17 12.06 З 2 н/о н/о +26.5 +18.4 61 +31 +31 душно 1008.0 951.4 0.0
18 12.06 З 3 н/о {осадки} н/о +25.6 +17.4 61 +30 +30 душно 1008.7 951.8 +16.8 +29.5 0.6
19 12.06 штиль 0 н/о н/о +23.9 +16.8 64 +27 +27 жарко 1009.4 952.2
20 12.06 СЗ 1 н/о н/о +21.9 +16.7 72 +26 +26 душно 1010.6 952.9
21 12.06 штиль 0 н/о н/о +20.7 +16.7 78 +24 +24 комфорт 1011.1 953.2
22 12.06 З 1 н/о н/о +20.4 +16.7 79 +25 +25 комфорт 1011.3 953.3
23 12.06 В 1 н/о н/о +20.4 +16.7 79 +25 +25 комфорт 1011.2 953.2
00 13.06 штиль 0 н/о н/о +19.3 +16.5 84 +21 +21 комфорт 1011.2 953.0
01 13.06 штиль 0 н/о н/о +18.3 +16.1 87 +19 +19 1011.1 952.7
02 13.06 штиль 0 н/о н/о +17.6 +15.8 89 +18 +18 1011.1 952.6
03 13.06 СВ 1 н/о н/о +16.7 +15.3 91 +18 +18 1011.8 953.0
04 13.06 З 1 н/о н/о +16.8 +15.4 91 +18 +18 1012.2 953.4
05 13.06 штиль 0 н/о н/о +18.6 +16.4 87 +19 +19 1012.2 953.8
06 13.06 СВ 1 н/о н/о +21.1 +16.4 75 +25 +25 комфорт 1011.9 954.0 +16.2 +25.8
07 13.06 З 1 н/о н/о +23.1 +17.6 71 +28 +28 душно 1011.3 953.8
08 13.06 штиль 0 н/о н/о +25.6 +16.5 57 +29 +29 душно 1010.7 953.7 0.0
09 13.06 штиль 0 н/о н/о +26.4 +15.1 50 +29 +29 жарко 1010.3 953.4 0.0
10 13.06 ЮЗ 4 н/о н/о +28.3 +12.7 38 +30 +30 жарко 1009.8 953.3
11 13.06 Ю 4 н/о н/о +28.9 +12.5 36 +30 +30 жарко 1009.6 953.2
12 13.06 Ю 4 н/о н/о +29.1 +10.5 31 +29 +29 жарко 1009.3 952.9 0.0
13 13.06 ЮЗ 4 н/о н/о +29.9 +12.0 33 +31 +31 жарко 1008.9 952.7
14 13.06 ЮЗ 4 н/о н/о +30.2 +9.6 28 +30 +30 жарко 1008.8 952.6
15 13.06 ЮЗ 3 н/о н/о +30.5 +10.0 28 +30 +30 жарко 1008.6 952.5
16 13.06 ЮЗ 5 н/о н/о +30.1 +9.6 28 +30 +30 жарко 1008.6 952.4
17 13.06 Ю 4 н/о н/о +29.6 +10.8 31 +30 +30 жарко 1008.7 952.4
18 13.06 ЮЗ 5 н/о н/о +28.7 +10.0 31 +29 +29 жарко 1009.1 952.6 +20.8 +30.8 0.0
19 13.06 З 3 н/о н/о +26.4 +10.5 37 +27 +27 жарко 1010.0 953.1
20 13.06 С 1 н/о н/о +21.6 +12.6 57 +24 +24 комфорт 1012.0 954.1
21 13.06 штиль 0 н/о н/о +19.0 +12.5 66 +20 +20 1013.3 954.8
22 13.06 СВ 1 н/о н/о +17.2 +12.1 72 +18 +18 1014.5 955.6
23 13.06 З 1 н/о н/о +16.0 +12.1 78 +17 +17 1015.2 956.0
00 14.06 В 1 н/о н/о +15.3 +11.4 78 +16 +16 1016.2 956.8
01 14.06 СЗ 1 н/о н/о +14.3 +11.1 81 +15 +15 1016.7 957.1
02 14.06 штиль 0 н/о н/о +13.7 +11.3 85 +13 +13 1017.5 957.7
03 14.06 штиль 0 н/о н/о +13.2 +11.0 87 +13 +13 1018.0 958.1
04 14.06 штиль 0 н/о н/о +13.7 +11.1 84 +13 +13 1018.9 959.0
05 14.06 СВ 1 н/о н/о +16.5 +11.9 74 +17 +17 1018.9 959.6
06 14.06 штиль 0 н/о н/о +18.4 +11.8 65 +19 +19 1018.8 959.9 +12.8 +28.9
07 14.06 З 1 н/о н/о +21.7 +13.0 58 +24 +24 комфорт 1018.3 960.1
08 14.06 СЗ 1 н/о н/о +24.3 +13.2 50 +26 +26 жарко 1017.6 959.9 0.0
09 14.06 штиль 0 н/о н/о +26.1 +14.0 47 +28 +28 жарко 1017.0 959.7 0.0
10 14.06 С 1 н/о н/о +28.1 +13.1 40 +30 +30 жарко 1016.2 959.3
11 14.06 СЗ 2 н/о н/о +29.4 +11.6 33 +30 +30 жарко 1015.7 959.0
12 14.06 З 3 н/о н/о +30.3 +12.7 34 +31 +31 жарко 1015.2 958.7 0.0
13 14.06 З 2 н/о н/о +31.3 +10.7 28 +31 +31 жарко 1014.4 958.1
14 14.06 ЮЗ 4 н/о н/о +32.0 +11.5 29 +32 +32 жарко 1013.7 957.6
15 14.06 ЮЗ 3 н/о н/о +32.0 +12.5 30 +32 +32 жарко 1013.2 957.1
16 14.06 ЮЗ 5 н/о н/о +31.7 +11.2 28 +32 +32 жарко 1012.9 956.8
17 14.06 ЮЗ 5 н/о н/о +30.6 +12.8 34 +32 +32 жарко 1013.2 956.9
18 14.06 ЮЗ 3 н/о н/о +29.2 +14.0 39 +31 +31 жарко 1013.6 957.0 +18.3 +32.5 0.0
19 14.06 СВ 2 н/о н/о +25.2 +15.3 54 +28 +28 жарко 1014.8 957.5
20 14.06 СВ 2 н/о н/о +22.7 +15.2 63 +27 +27 душно 1015.9 958.0
21 14.06 З 1 н/о н/о +20.7 +15.4 72 +25 +25 комфорт 1016.4 958.1
22 14.06 СЗ 1 н/о н/о +19.7 +14.8 73 +23 +23 комфорт 1016.6 958.1
23 14.06 СВ 1 н/о н/о +18.4 +14.6 79 +20 +20 1016.7 958.0
00 15.06 штиль 0 н/о н/о +17.3 +13.9 80 +17 +17 1016.7 957.7
01 15.06 штиль 0 н/о н/о +16.7 +14.0 84 +17 +17 1016.6 957.5
02 15.06 З 1 н/о н/о +15.8 +13.8 88 +16 +16 1016.3 957.1
03 15.06 штиль 0 н/о н/о +15.5 +13.6 88 +15 +15 1016.2 956.9
04 15.06 СВ 1 н/о н/о +15.8 +13.7 87 +16 +16 1015.8 956.6
05 15.06 СВ 1 н/о н/о +18.1 +13.6 75 +19 +19 1015.5 956.7
06 15.06 СЗ 1 н/о н/о +18.9 +14.4 75 +21 +21 комфорт 1015.3 956.7 +15.0 +29.7
07 15.06 СЗ 1 н/о н/о +20.4 +15.1 72 +24 +24 комфорт 1014.9 956.7
08 15.06 СЗ 1 н/о н/о +21.1 +15.3 69 +24 +24 комфорт 1014.6 956.5
09 15.06 СВ 1 н/о н/о +22.7 +15.5 64 +27 +27 душно 1013.9 956.2
10 15.06 З 1 н/о н/о +23.6 +15.7 61 +27 +27 жарко 1013.5 956.0
11 15.06 ЮЗ 1 н/о н/о +25.9 +14.7 50 +28 +28 жарко 1012.6 955.5
12 15.06 В 1 н/о н/о +27.5 +15.6 48 +30 +30 жарко 1011.9 955.2
13 15.06 ЮЗ 3 н/о н/о +28.2 +17.0 51 +32 +32 душно 1011.0 954.5
14 15.06 ЮЗ 2 н/о н/о +29.5 +12.3 35 +31 +31 жарко 1010.8 954.4
15 15.06 ЮЗ 3 н/о н/о +30.2 +12.2 33 +31 +31 жарко 1009.9 953.7
16 15.06 ЮЗ 3 н/о н/о +30.1 +11.7 32 +31 +31 жарко 1009.1 952.9
17 15.06 ЮЗ 3 н/о н/о +29.8 +11.2 32 +30 +30 жарко 1009.2 952.9
18 15.06 ЮЗ 3 н/о н/о +28.6 +12.3 37 +30 +30 жарко 1009.0 952.6 +18.8 +30.6
19 15.06 СВ 1 н/о н/о +24.8 +15.1 55 +28 +28 жарко 1010.2 953.1
20 15.06 СВ 1 н/о н/о +22.7 +14.7 61 +26 +26 жарко 1011.4 953.8
21 15.06 СВ 1 н/о н/о +21.4 +14.8 66 +24 +24 комфорт 1012.1 954.2
22 15.06 штиль 0 н/о н/о +19.0 +14.8 77 +20 +20 1012.9 954.5
23 15.06 З 1 н/о н/о +17.8 +14.7 82 +19 +19 1013.8 955.1
00 16.06 З 1 н/о н/о +16.8 +14.3 85 +18 +18 1013.7 954.8
01 16.06 штиль 0 н/о н/о +16.2 +14.0 87 +16 +16 1013.7 954.7
02 16.06 СВ 1 н/о н/о +15.2 +13.4 89 +16 +16 1013.9 954.7
03 16.06 СВ 1 н/о н/о +14.8 +13.0 89 +15 +15 1014.6 955.2
04 16.06 ЮЗ 1 н/о н/о +15.2 +13.3 88 +16 +16 1015.0 955.7
05 16.06 В 1 н/о н/о +17.6 +13.8 78 +19 +19 1014.7 955.9
06 16.06 С 1 н/о н/о +18.8 +14.2 75 +21 +21 комфорт 1015.2 956.6 +14.3 +29.1
07 16.06 З 1 н/о н/о +21.1 +14.5 66 +24 +24 комфорт 1014.9 956.8
08 16.06 В 3 н/о н/о +24.5 +13.5 50 +27 +27 жарко 1014.4 956.9 0.0
09 16.06 СВ 3 н/о н/о +23.1 +13.3 54 +26 +26 жарко 1015.2 957.4 0.0
10 16.06 СВ 2 н/о н/о +23.4 +13.4 53 +27 +27 душно 1015.3 957.6
11 16.06 СВ 4 н/о н/о +23.0 +12.8 53 +26 +26 жарко 1015.7 957.9
12 16.06 СВ 4 н/о н/о +23.7 +13.1 51 +26 +26 жарко 1015.8 958.1 0.0
13 16.06 СВ 3 н/о н/о +21.5 +12.0 55 +24 +24 комфорт 1016.2 958.0
14 16.06 В 2 н/о н/о +21.3 +11.3 53 +23 +23 комфорт 1016.6 958.4
15 16.06 СЗ 1 н/о н/о +20.3 +12.3 60 +23 +23 комфорт 1017.4 958.9 0.0
16 16.06 ЮЗ 2 н/о ливневой дождь н/о +19.3 +13.9 71 +21 +21 комфорт 1016.8 958.2 0.2
17 16.06 С 1 н/о н/о +20.4 +13.7 65 +24 +24 комфорт 1017.5 959.1 0.0
18 16.06 СВ 2 н/о {ливн. осадки} н/о +20.1 +13.3 65 +23 +23 комфорт 1017.7 959.2 +18.6 +24.7 0.2
19 16.06 СЗ 1 н/о н/о +18.9 +14.2 74 +21 +21 комфорт 1018.3 959.6
20 16.06 В 1 н/о н/о +17.5 +13.9 79 +19 +19 1019.4 960.3
21 16.06 З 2 н/о н/о +15.7 +13.1 85 +16 +16 1020.2 960.7
22 16.06 штиль 0 н/о н/о +15.4 +12.6 83 +15 +15 1020.7 961.1
23 16.06 В 1 н/о н/о +14.4 +12.2 87 +15 +15 1020.3 960.5
00 17.06 СЗ 1 н/о н/о +13.6 +11.7 88 +14 +14 1021.0 961.0
01 17.06 ЮЗ 1 н/о н/о +13.6 +11.7 88 +14 +14 1020.9 960.9
02 17.06 В 1 н/о н/о +13.2 +11.4 89 +13 +13 1021.0 960.9
03 17.06 З 1 н/о н/о +12.8 +11.2 90 +13 +13 1021.3 961.1
04 17.06 штиль 0 н/о н/о +13.6 +11.8 89 +13 +13 1021.1 961.1
05 17.06 С 1 н/о н/о +16.6 +11.9 74 +17 +17 1020.5 961.1
06 17.06 СВ 1 н/о н/о +18.1 +12.1 68 +19 +19 1019.9 960.9 +12.5 +20.3
07 17.06 СВ 1 н/о н/о +19.4 +12.4 64 +22 +22 комфорт 1019.1 960.4
08 17.06 СВ 2 н/о н/о +21.2 +11.8 55 +23 +23 комфорт 1018.6 960.2
09 17.06 СВ 2 н/о н/о +22.2 +10.8 48 +24 +24 комфорт 1018.2 960.0
10 17.06 З 2 н/о н/о +23.3 +11.3 47 +26 +26 жарко 1017.5 959.6
11 17.06 В 1 н/о н/о +25.1 +10.9 41 +26 +26 жарко 1016.5 959.0
12 17.06 В 3 н/о н/о +25.2 +10.0 38 +26 +26 жарко 1016.2 958.7
13 17.06 ЮВ 4 н/о н/о +22.8 +12.4 52 +26 +26 жарко 1016.9 958.9 0.0
15 17.06 штиль 0 н/о осадки н/о +19.0 +15.7 81 +20 +20 1018.4 959.7 2
17 17.06 С 1 н/о в посл. час осадки н/о +19.1 +15.9 82 +22 +22 комфорт 1017.9 959.3 0.0
18 17.06 В 1 н/о {ливн. осадки} н/о +18.8 +15.4 81 +21 +21 комфорт 1017.9 959.2 +17.6 +25.9 2

 

Местоположение метеостанции Капфенберг аэропорт (Австрия): широта 47.47 долгота 15.33 высота над уровнем моря 515 м.

В архиве по умолчанию представлена погода в Капфенберг аэропорту за последнюю неделю. Архивные данные за месяц целиком и за предыдущие месяцы, начиная с января 2011 года, Вы можете получить, выбрав интересующий диапазон дат из раскрывающегося списка и нажав кнопку "Ввод!".


*Определитесь, кто Вы:
робот инопланетянин человек

Внимание! Время в таблицах - всемирное. Для получения местного времени необходимо прибавить поправку, которая равна 1 ч.

Смотрите также архив погоды в соседних городах и на ближайших метеорологических станциях:

Погода в Капфенберге (Австрия) (3 км)
Погода в Брукк-ан-дер-Муре (Австрия) (7 км)
Погода в Афленц-Курорте (Австрия) (11 км)
Погода в Леобене (Австрия) (21 км)
Погода в Фишбахе (Австрия) (24 км)
Погода в Пребихле (Австрия) (29 км)
Погода на Шёкле (Австрия) (32 км)
Погода в Санкт Радегунд бай Грац (Австрия) (35 км)
Погода в Санкт-Себастьяне (Австрия) (37 км)
Погода в Граце университет (Австрия) (40 км)

Пояснения к столбцам:

Ветер - указаны скорость ветра в м/с - средняя за 10 мин, порывы в срок и между сроками (в фигурных скобках) и направление, откуда дует ветер: С - северный, СВ - северо-восточный, В - восточный, ЮВ - юго-восточный, Ю - южный, ЮЗ - юго-западный, З - западный, СЗ - северо-западный.
Видимость - горизонтальная дальность видимости в метрах или километрах. При видимости от 1 до 10 км при отсутствии осадков обычно наблюдается дымка, при ухудшении видимости до 1 км и менее - туман. В сухую погоду видимость может ухудшаться дымом, пылью или мглою.
Явления - указаны атмосферные явления, наблюдавшиеся в срок или в последний час перед сроком; фигурными скобками обозначены явления, наблюдавшиеся между сроками (за 1-3 часа до срока); квадратными скобками обозначены град или гололедные отложения с указанием их диаметра в мм.
Облачность - указаны через наклонную черту общая и нижняя облачность в баллах и высота нижней границы облаков в метрах; квадратными скобками обозначены формы облаков: Ci - перистые, Cs - перисто-слоистые, Cc - перисто-кучевые, Ac - высококучевые, As - высокослоистые, Sc - слоисто-кучевые, Ns - слоисто-дождевые, Cu - кучевые, Cb - кучево-дождевые. Подробнее классификацию облаков см. в Атласе облаков (PDF).
T - Температура воздуха - температура, измеренная на высоте 2 м над землей.
Td - Температура точки росы - температура, при понижении до которой содержащийся в воздухе водяной пар достигнет насыщения.
f - Относительная влажность воздуха - влажноcть воздуха, измеренная на высоте 2 м над землей.
Te - Эффективная температура - температура, которую ощущает одетый по сезону человек в тени. Характеристика душности погоды. При расчете учитывается влияние влажности воздуха и скорости ветра на теплоощущения человека.
Tes - Эффективная температура на солнце - температура, которую ощущает человек, с поправкой на солнечный нагрев. Характеристика знойности погоды. Зависит от высоты солнца над горизонтом, облачности и скорости ветра. Ночью, в пасмурную погоду, а также при ветре 12 м/с и более поправка равна нулю.
P - Атмосферное давление - приведенное к уровню моря атмосферное давление.
Po - Атмосферное давление - измеренное на уровне метеостанции атмосферное давление.
Tmin - Минимальная температура - минимум температуры воздуха на высоте 2 м над землей.
Tmax - Максимальная температура - максимум температуры воздуха на высоте 2 м над землей.
R - Количество осадков - Количество выпавших осадков за период времени, мм. При наведении курсора мыши на число - период времени, за который выпало указанное количество осадков.
R24 - Количество осадков - Количество выпавших осадков за 24 часа, мм.
S - Снежный покров - Высота снежного покрова, см. При наведении курсора мыши на число - состояние снежного покрова и степень покрытия местности в баллах.